Location: Beulah
(33.1426°N, 83.0557°W)
Time: 19:51:26
(UTC+00:00)

Envisat - Pass Details

Date: 07 December 2021
Orbit: 764 x 766 km, 98.2° (Epoch: 28 January)

Event Time Altitude Azimuth Distance (km) Brightness Sun altitude
Rises 23:15:10 0° 220° (SW) 3,218 7.4 -10.4°
Maximum altitude 23:20:39 10° 269° (W) 2,303 6.8 -11.5°
Drops below altitude 10° 23:20:41 10° 269° (W) 2,303 6.8 -11.5°
Sets 23:26:11 0° 318° (NW) 3,235 6.6 -12.6°
